EW9957 Weather Reports


Display with metric or nautical units.
time (UTC)temp
F
wind
direction
speed
MPH
gust
MPH
rain 1hr
in
rain 24hr
in
rain mn
in
humidity
%
barometer
mb
20260506084606 54 35 0.0 0.0 0.00 0.14 0.00 84 1018.7
20260506084523 54 35 0.0 0.0 0.00 0.14 0.00 84 1018.7
20260506084019 54 38 0.0 0.0 0.00 0.14 0.00 84 1018.8
20260506083536 54 38 0.0 0.0 0.00 0.14 0.00 84 1018.8
20260506083039 54 36 0.0 0.0 0.00 0.14 0.00 84 1018.9
20260506082536 54 38 0.0 0.0 0.00 0.14 0.00 83 1018.8
20260506082031 54 32 0.0 0.0 0.00 0.14 0.00 83 1018.8
20260506081553 55 34 0.0 0.0 0.00 0.14 0.00 83 1018.9
20260506081107 55 37 0.0 0.0 0.00 0.14 0.00 82 1018.9
20260506081025 55 37 0.0 0.0 0.00 0.14 0.00 82 1018.9
20260506080540 55 35 0.0 0.0 0.00 0.14 0.00 82 1019.0
20260506073517 56 35 1.0 2.0 0.00 0.14 0.00 81 1019.2
20260506073020 56 32 1.0 2.0 0.00 0.14 0.00 81 1019.2
20260506072515 56 32 1.0 3.0 0.00 0.14 0.00 80 1019.2
20260506072031 56 35 1.0 3.0 0.00 0.14 0.00 80 1019.2
20260506071534 56 38 1.0 2.0 0.00 0.14 0.00 80 1019.3
20260506071048 56 36 1.0 3.0 0.00 0.14 0.00 80 1019.3
20260506070523 56 35 0.0 3.0 0.00 0.14 0.00 80 1019.2
20260506070107 56 36 0.0 2.0 0.00 0.14 0.00 80 1019.1
20260506062022 56 36 0.0 2.0 0.00 0.14 0.14 81 1018.8
20260506061607 56 36 1.0 3.0 0.00 0.14 0.14 80 1018.9
20260506061020 57 36 2.0 3.0 0.00 0.14 0.14 80 1018.9
20260506060536 56 36 0.0 2.0 0.00 0.14 0.14 80 1018.9
20260506051016 58 36 1.0 2.0 0.00 0.14 0.14 77 1018.7
20260506050547 58 34 1.0 3.0 0.00 0.14 0.14 76 1018.6
20260506045037 59 36 2.0 5.0 0.00 0.16 0.14 76 1018.5
20260506044601 59 32 2.0 5.0 0.00 0.16 0.14 76 1018.4
20260506044518 59 32 2.0 5.0 0.00 0.16 0.14 76 1018.4
20260506044033 59 36 1.0 5.0 0.00 0.16 0.14 76 1018.3
20260506043547 59 37 3.0 5.0 0.00 0.16 0.14 76 1018.2
20260506043048 59 36 4.0 5.0 0.00 0.16 0.14 76 1018.2
20260506042542 59 39 3.0 5.0 0.00 0.16 0.14 76 1018.2
20260506042018 59 35 3.0 5.0 0.00 0.16 0.14 76 1018.2
20260506041540 59 34 3.0 4.0 0.00 0.16 0.14 76 1018.1
20260506041035 59 34 2.0 6.0 0.00 0.16 0.14 76 1018.0
20260506040609 59 36 4.0 6.0 0.00 0.16 0.14 76 1018.0
20260506040028 59 34 3.0 5.0 0.00 0.16 0.14 76 1017.9
20260506035543 59 36 4.0 5.0 0.00 0.16 0.14 76 1017.9
20260506035017 59 36 3.0 5.0 0.00 0.16 0.14 76 1017.7
20260506034601 59 35 3.0 5.0 0.00 0.16 0.14 75 1017.6
20260506034015 59 36 4.0 5.0 0.00 0.16 0.14 75 1017.5
20260506033612 59 32 2.0 4.0 0.00 0.16 0.14 75 1017.5
20260506033530 59 32 2.0 4.0 0.00 0.16 0.14 75 1017.5
20260506033053 59 35 2.0 5.0 0.00 0.16 0.14 74 1017.4
20260506032547 59 35 3.0 6.0 0.00 0.16 0.14 74 1017.3
20260506032021 59 34 2.0 8.0 0.00 0.16 0.14 74 1017.3
20260506031605 59 36 5.0 8.0 0.00 0.16 0.14 74 1017.3
20260506031523 59 36 5.0 8.0 0.00 0.16 0.14 74 1017.3
20260506031058 59 35 3.0 8.0 0.00 0.16 0.14 73 1017.2
20260506031016 59 35 3.0 8.0 0.00 0.16 0.14 73 1017.2
20260506030531 59 37 4.0 7.0 0.00 0.16 0.14 72 1017.3
20260506030056 59 38 4.0 6.0 0.00 0.16 0.14 72 1017.2
20260506030013 59 38 4.0 6.0 0.00 0.16 0.14 72 1017.2
20260506025550 59 35 3.0 9.0 0.00 0.16 0.14 72 1017.1
20260506025026 59 35 4.0 9.0 0.00 0.16 0.14 71 1017.0
20260506024548 59 38 4.0 11.0 0.00 0.16 0.14 71 1016.9
20260506024023 59 36 8.0 11.0 0.00 0.16 0.14 69 1016.9
20260506023519 60 35 5.0 9.0 0.00 0.16 0.14 69 1016.8
20260506023044 59 35 4.0 9.0 0.00 0.16 0.14 69 1016.8
20260506022519 59 37 5.0 10.0 0.00 0.16 0.14 69 1016.8
20260506022034 59 36 6.0 10.0 0.00 0.16 0.14 69 1016.7
20260506021515 59 36 6.0 12.0 0.00 0.16 0.14 68 1016.6
20260506021014 60 34 8.0 13.0 0.00 0.16 0.14 67 1016.6
20260506020529 60 36 8.0 12.0 0.00 0.16 0.14 67 1016.5
20260506020029 61 35 6.0 11.0 0.00 0.16 0.14 65 1016.5
20260506015525 60 36 6.0 11.0 0.00 0.16 0.14 65 1016.5
20260506015041 60 36 7.0 11.0 0.00 0.16 0.14 65 1016.4
20260506014545 60 37 7.0 12.0 0.00 0.16 0.14 66 1016.4
20260506014039 60 36 8.0 12.0 0.00 0.16 0.14 65 1016.4
20260506013514 61 36 9.0 12.0 0.00 0.16 0.14 66 1016.4
20260506013017 61 35 7.0 13.0 0.00 0.16 0.14 63 1016.3
20260506012552 61 36 6.0 13.0 0.00 0.16 0.14 63 1016.2
20260506012026 61 34 7.0 13.0 0.00 0.16 0.14 64 1016.1
20260506011527 61 38 9.0 14.0 0.00 0.16 0.14 65 1016.2
20260506011022 61 36 10.0 16.0 0.00 0.16 0.14 63 1016.2
20260506010540 61 34 10.0 16.0 0.00 0.16 0.14 63 1016.1
20260506010113 61 36 10.0 15.0 0.00 0.16 0.14 62 1016.0
20260506005548 62 35 9.0 14.0 0.00 0.16 0.14 61 1016.1
20260506005043 62 37 4.0 16.0 0.00 0.16 0.14 60 1016.0
20260506004545 61 36 12.0 16.0 0.00 0.16 0.14 58 1016.0
20260506004100 61 34 10.0 16.0 0.00 0.16 0.14 62 1016.0
20260506003615 62 35 6.0 17.0 0.00 0.16 0.14 61 1015.9
20260506003532 62 35 6.0 17.0 0.00 0.16 0.14 61 1015.9
20260506003015 62 35 9.0 17.0 0.00 0.16 0.14 59 1016.0
20260506002530 62 36 8.0 17.0 0.00 0.16 0.14 62 1016.0
20260506002107 62 37 10.0 18.0 0.00 0.16 0.14 61 1016.0
20260506002024 62 37 10.0 18.0 0.00 0.16 0.14 61 1016.0
20260506001524 63 35 12.0 18.0 0.00 0.16 0.14 60 1016.0
20260506001059 62 37 10.0 14.0 0.00 0.16 0.14 61 1016.0
20260506000612 63 36 9.0 13.0 0.00 0.16 0.14 60 1016.0
20260506000530 63 36 9.0 13.0 0.00 0.16 0.14 60 1016.0
20260506000032 62 36 9.0 21.0 0.00 0.16 0.14 60 1016.0
20260505235528 62 36 13.0 21.0 0.00 0.16 0.14 59 1016.1
20260505235045 61 35 11.0 17.0 0.00 0.16 0.14 63 1016.0
20260505234545 63 35 8.0 19.0 0.00 0.16 0.14 63 1016.0
20260505234059 62 37 13.0 19.0 0.00 0.16 0.14 62 1016.0
20260505234017 62 37 13.0 19.0 0.00 0.16 0.14 62 1016.0
20260505233612 62 34 9.0 18.0 0.00 0.16 0.14 64 1016.0
20260505233530 62 34 9.0 18.0 0.00 0.16 0.14 64 1016.0
20260505233052 62 36 11.0 18.0 0.00 0.16 0.14 63 1015.9
20260505232606 62 36 14.0 18.0 0.00 0.16 0.14 62 1015.9
20260505232524 62 36 14.0 18.0 0.00 0.16 0.14 62 1015.9
20260505232055 63 38 11.0 18.0 0.00 0.16 0.14 59 1016.0
20260505231515 62 32 11.0 18.0 0.00 0.16 0.14 60 1015.9
20260505231014 63 34 11.0 18.0 0.00 0.16 0.14 57 1016.0
20260505230606 63 34 12.0 18.0 0.00 0.16 0.14 58 1016.0
20260505230523 63 34 12.0 18.0 0.00 0.16 0.14 58 1016.0
20260505230028 63 36 9.0 20.0 0.00 0.16 0.14 57 1016.0
20260505225524 63 35 15.0 20.0 0.00 0.16 0.14 57 1016.1
20260505225040 63 32 11.0 20.0 0.00 0.16 0.14 58 1016.0
20260505224523 63 37 12.0 18.0 0.00 0.16 0.14 57 1016.0
20260505224038 64 36 12.0 18.0 0.00 0.16 0.14 59 1016.0
20260505223613 63 35 13.0 18.0 0.00 0.16 0.14 59 1016.0
20260505223530 63 35 13.0 18.0 0.00 0.16 0.14 59 1016.0
20260505223030 64 36 9.0 20.0 0.00 0.16 0.14 55 1016.2
20260505222547 64 32 10.0 18.0 0.00 0.16 0.14 56 1016.1
20260505222101 64 34 12.0 18.0 0.00 0.16 0.14 55 1016.1
20260505221541 64 32 10.0 18.0 0.00 0.16 0.14 56 1016.3
20260505221055 64 34 12.0 16.0 0.00 0.16 0.14 54 1016.2
20260505220529 65 34 8.0 18.0 0.00 0.16 0.14 54 1016.2
20260505220031 64 35 11.0 18.0 0.00 0.16 0.14 54 1016.2
20260505215526 64 35 12.0 18.0 0.00 0.16 0.14 55 1016.4
20260505215023 64 36 12.0 18.0 0.00 0.16 0.14 55 1016.4
20260505214607 64 35 11.0 18.0 0.00 0.16 0.14 56 1016.4
20260505214020 64 35 11.0 18.0 0.00 0.16 0.14 56 1016.5
20260505213555 64 36 10.0 16.0 0.00 0.16 0.14 52 1016.6
20260505213016 64 36 10.0 17.0 0.00 0.16 0.14 56 1016.6
20260505212612 64 35 10.0 17.0 0.00 0.16 0.14 52 1016.6
20260505212530 64 35 10.0 17.0 0.00 0.16 0.14 52 1016.6
20260505212105 63 36 8.0 17.0 0.00 0.16 0.14 54 1016.6
20260505212023 63 36 8.0 17.0 0.00 0.16 0.14 54 1016.6
20260505211547 64 32 11.0 17.0 0.00 0.16 0.14 54 1016.7
20260505211058 64 35 9.0 15.0 0.00 0.16 0.14 56 1016.6
20260505210551 65 34 8.0 17.0 0.00 0.16 0.14 57 1016.7
20260505210052 63 32 12.0 17.0 0.00 0.16 0.14 54 1016.7
20260505205548 64 34 10.0 17.0 0.00 0.16 0.14 56 1016.8
20260505205048 63 37 12.0 20.0 0.00 0.16 0.14 59 1016.8
20260505204609 63 36 13.0 24.0 0.00 0.16 0.14 58 1016.8
20260505204044 63 35 11.0 24.0 0.00 0.16 0.14 62 1016.8
20260505203538 64 32 12.0 18.0 0.00 0.16 0.14 60 1016.7
20260505203102 64 36 10.0 18.0 0.00 0.16 0.14 60 1016.7
20260505203019 64 36 10.0 18.0 0.00 0.16 0.14 60 1016.7
20260505202514 63 38 12.0 18.0 0.00 0.16 0.14 60 1016.8
20260505202049 62 32 12.0 18.0 0.00 0.16 0.14 62 1016.7
20260505201551 64 36 11.0 19.0 0.00 0.16 0.14 58 1016.7
20260505201026 64 35 12.0 19.0 0.00 0.16 0.14 58 1016.7
20260505200601 64 37 11.0 17.0 0.00 0.16 0.14 58 1016.7
20260505200519 64 37 11.0 17.0 0.00 0.16 0.14 58 1016.7
20260505200114 63 36 8.0 16.0 0.00 0.16 0.14 57 1016.8
20260505200032 63 36 8.0 16.0 0.00 0.16 0.14 57 1016.8
20260505195549 64 36 9.0 16.0 0.00 0.16 0.14 53 1016.8
20260505195043 65 37 9.0 15.0 0.00 0.16 0.14 56 1016.8
20260505194545 64 38 8.0 15.0 0.00 0.16 0.14 57 1016.8
20260505194100 64 34 11.0 17.0 0.00 0.16 0.14 53 1016.9
20260505194018 64 34 11.0 17.0 0.00 0.16 0.14 53 1016.9
20260505193613 63 34 10.0 18.0 0.00 0.16 0.14 52 1016.8
20260505193034 63 36 11.0 18.0 0.00 0.16 0.14 48 1016.9
20260505192547 64 32 11.0 17.0 0.00 0.16 0.14 52 1016.9
20260505192021 63 34 11.0 17.0 0.00 0.16 0.14 52 1016.9
20260505191523 63 35 11.0 17.0 0.00 0.16 0.14 53 1017.0
20260505191018 63 34 10.0 17.0 0.00 0.16 0.14 52 1016.9
20260505190553 62 35 9.0 17.0 0.00 0.16 0.14 54 1017.0
20260505190015 63 38 12.0 17.0 0.00 0.16 0.14 59 1017.1
20260505185551 63 35 11.0 17.0 0.00 0.16 0.14 59 1017.0
20260505185105 63 35 10.0 16.0 0.00 0.16 0.14 57 1017.0
20260505185023 63 35 10.0 16.0 0.00 0.16 0.14 57 1017.0
20260505184607 63 34 7.0 16.0 0.00 0.16 0.14 57 1017.0
20260505184525 63 34 7.0 16.0 0.00 0.16 0.14 57 1017.0
20260505184020 63 36 9.0 16.0 0.00 0.16 0.14 58 1017.0
20260505183537 63 35 8.0 17.0 0.00 0.16 0.14 61 1017.0
20260505183112 63 36 10.0 15.0 0.00 0.16 0.14 57 1017.0
20260505183029 63 36 10.0 15.0 0.00 0.16 0.14 57 1017.0
20260505182546 62 37 5.0 15.0 0.00 0.16 0.14 62 1017.0
20260505182100 62 36 11.0 17.0 0.00 0.16 0.14 57 1017.1
20260505182017 62 36 11.0 17.0 0.00 0.16 0.14 57 1017.1
20260505181601 62 32 11.0 17.0 0.00 0.16 0.14 57 1017.0
20260505181014 62 32 8.0 16.0 0.00 0.16 0.14 59 1017.0
20260505180609 62 35 7.0 15.0 0.00 0.16 0.14 57 1016.9
20260505180107 62 35 10.0 15.0 0.00 0.16 0.14 60 1017.0
20260505175524 62 35 6.0 16.0 0.00 0.16 0.14 60 1016.9
20260505175055 62 35 9.0 16.0 0.00 0.16 0.14 61 1016.9
20260505174516 62 36 8.0 13.0 0.00 0.16 0.14 64 1016.8
20260505174036 61 35 4.0 13.0 0.00 0.16 0.14 68 1016.7
20260505173533 61 36 7.0 13.0 0.00 0.16 0.14 70 1016.7
20260505173016 60 36 8.0 14.0 0.00 0.16 0.14 71 1016.6
20260505172611 60 36 9.0 14.0 0.00 0.16 0.14 72 1016.6
20260505172529 60 36 9.0 14.0 0.00 0.16 0.14 72 1016.6
20260505172044 60 36 6.0 11.0 0.00 0.16 0.14 74 1016.5
20260505171541 59 35 7.0 13.0 0.00 0.16 0.14 76 1016.5
20260505171019 59 35 9.0 15.0 0.00 0.16 0.14 76 1016.5
20260505170555 59 35 8.0 15.0 0.00 0.16 0.14 77 1016.4
20260505170512 59 35 8.0 15.0 0.00 0.16 0.14 77 1016.4
20260505170015 58 36 8.0 13.0 0.00 0.16 0.14 79 1016.4
20260505165531 59 35 7.0 12.0 0.00 0.16 0.14 79 1016.4
20260505165046 59 32 6.0 12.0 0.00 0.16 0.14 78 1016.3
20260505164609 58 36 6.0 11.0 0.00 0.16 0.14 80 1016.3
20260505164058 58 34 4.0 8.0 0.00 0.16 0.14 83 1016.2
20260505163612 58 35 5.0 8.0 0.00 0.16 0.14 83 1016.1
20260505163529 58 35 5.0 8.0 0.00 0.16 0.14 83 1016.1
20260505163051 58 35 4.0 7.0 0.00 0.16 0.14 84 1016.1
20260505162606 57 35 3.0 5.0 0.00 0.16 0.14 84 1016.1
20260505162523 57 35 3.0 5.0 0.00 0.16 0.14 84 1016.1
20260505162059 57 34 2.0 5.0 0.00 0.16 0.14 85 1016.0
20260505162016 57 34 2.0 5.0 0.00 0.16 0.14 85 1016.0
20260505161541 57 36 3.0 5.0 0.00 0.16 0.14 85 1016.1
20260505161035 57 34 2.0 6.0 0.00 0.16 0.14 85 1016.0
20260505160549 57 36 4.0 6.0 0.00 0.16 0.14 83 1015.9
20260505153100 57 38 5.0 10.0 0.00 0.16 0.14 84 1015.7
20260505152530 57 35 4.0 11.0 0.00 0.16 0.14 84 1015.7
20260505152045 57 35 5.0 11.0 0.00 0.16 0.14 85 1015.7
20260505151608 57 37 4.0 9.0 0.00 0.16 0.14 86 1015.7
20260505151526 57 37 4.0 9.0 0.00 0.16 0.14 86 1015.7
20260505151021 57 38 5.0 9.0 0.00 0.16 0.14 86 1015.6
20260505150517 57 36 4.0 9.0 0.00 0.16 0.14 86 1015.7
20260505150112 57 35 3.0 5.0 0.00 0.16 0.14 86 1015.6
20260505140601 56 38 1.0 3.0 0.01 0.16 0.14 91 1015.2
20260505140518 56 38 1.0 3.0 0.01 0.16 0.14 91 1015.2
20260505130105 55 36 0.0 0.0 0.04 0.15 0.13 92 1014.6
20260505125031 55 38 0.0 1.0 0.07 0.15 0.13 92 1014.5
20260505124532 55 35 0.0 2.0 0.07 0.15 0.13 92 1014.5
20260505124047 55 35 0.0 4.0 0.07 0.15 0.13 92 1014.6
20260505123601 55 35 3.0 5.0 0.07 0.15 0.13 91 1014.7
20260505123113 55 35 2.0 5.0 0.06 0.14 0.12 92 1014.7
20260505122606 55 36 1.0 3.0 0.05 0.13 0.11 91 1014.6
20260505122019 55 34 0.0 0.0 0.04 0.12 0.10 92 1014.5
20260505121614 55 36 0.0 2.0 0.04 0.12 0.10 92 1014.5
20260505121048 55 36 1.0 5.0 0.04 0.12 0.10 91 1014.4
20260505120542 55 38 1.0 5.0 0.04 0.12 0.10 92 1014.4
20260505120106 55 35 0.0 1.0 0.03 0.11 0.09 92 1014.4
20260505120023 55 35 0.0 1.0 0.03 0.11 0.09 92 1014.4
20260505115519 55 36 0.0 1.0 0.01 0.09 0.07 92 1014.4
20260505115036 55 34 0.0 2.0 0.00 0.08 0.06 92 1014.4
20260505114600 55 37 0.0 1.0 0.00 0.08 0.06 92 1014.4
20260505114517 55 37 0.0 1.0 0.00 0.08 0.06 92 1014.4
20260505114053 55 35 0.0 0.0 0.04 0.08 0.06 92 1014.5
20260505113549 55 37 0.0 0.0 0.04 0.08 0.06 91 1014.5
20260505113050 55 34 0.0 0.0 0.04 0.08 0.06 91 1014.5
20260505112546 55 38 0.0 2.0 0.04 0.08 0.06 91 1014.5
20260505112101 55 36 0.0 2.0 0.04 0.08 0.06 91 1014.5
20260505112018 55 36 0.0 2.0 0.04 0.08 0.06 91 1014.5
20260505111602 55 34 1.0 3.0 0.04 0.08 0.06 91 1014.6
20260505111520 55 34 1.0 3.0 0.04 0.08 0.06 91 1014.6
20260505111015 55 35 2.0 3.0 0.04 0.08 0.06 91 1014.6
20260505110611 55 37 1.0 3.0 0.04 0.08 0.06 91 1014.6
20260505102107 55 36 1.0 2.0 0.02 0.04 0.02 90 1014.7
20260505101547 55 34 1.0 2.0 0.02 0.04 0.02 91 1014.8
20260505101102 55 35 1.0 1.0 0.02 0.04 0.02 90 1014.8
20260505101019 55 35 1.0 1.0 0.02 0.04 0.02 90 1014.8
20260505100615 55 38 1.0 2.0 0.02 0.04 0.02 90 1014.8
20260505100532 55 38 1.0 2.0 0.02 0.04 0.02 90 1014.8
20260505100015 55 34 1.0 2.0 0.02 0.04 0.02 90 1014.7
20260505095529 55 38 0.0 2.0 0.02 0.04 0.02 90 1014.8
20260505095104 55 38 1.0 3.0 0.02 0.04 0.02 89 1014.8
20260505094546 55 36 1.0 3.0 0.01 0.03 0.01 89 1014.8
20260505094020 55 36 1.0 4.0 0.01 0.03 0.01 88 1014.9
20260505093615 55 36 1.0 4.0 0.01 0.03 0.01 88 1014.8
20260505093035 55 35 2.0 4.0 0.01 0.03 0.01 87 1014.9
20260505092549 56 34 2.0 3.0 0.01 0.03 0.01 87 1015.0
20260505092024 56 38 1.0 3.0 0.00 0.02 0.00 87 1015.0
20260505091546 56 36 1.0 2.0 0.00 0.02 0.00 87 1014.9
20260505091041 56 38 0.0 2.0 0.00 0.02 0.00 87 1015.0
20260505090535 56 37 1.0 2.0 0.00 0.02 0.00 87 1015.1
20260505090059 56 36 1.0 3.0 0.00 0.02 0.00 86 1015.1
20260505090017 56 36 1.0 3.0 0.00 0.02 0.00 86 1015.1
20260505085613 56 38 1.0 3.0 0.00 0.02 0.00 86 1015.2
20260505085047 56 38 1.0 3.0 0.00 0.02 0.00 86 1015.2